Other Surface Observations
Issued by NWS Charleston, SC

Current Version | Previous Version | Text Only | Print | Product List | Glossary On
Versions: 1 2 3 4 5 6 7 8 9 10 11 12 13 14 15 16 17 18 19 20 21 22 23 24 25 26 27 28 29 30 31 32 33 34 35 36 37 38 39 40 41 42 43 44 45 46 47 48 49 50
000
SXUS52 KCHS 280328
OSOCHS

MARINE OBSERVATIONS
NATIONAL WEATHER SERVICE CHARLESTON SC
1100 PM EDT TUE SEP 27 2016

...DOWNTOWN CHARLESTON AND HARBOR...

CITY           SKY/WX    TMP DP  RH WIND       PRES   REMARKS
WATERFRONT PRK   N/A     78  73  84 VRB2      29.90R

...LAKE MOULTRIE...

CITY           SKY/WX    TMP DP  RH WIND       PRES   REMARKS
PINOPOLIS        N/A     75  72  88 CALM      29.85R

...LAKE AND SUPPLEMENTAL COASTAL OBSERVATIONS...

STATION/POSITION TIME  TEMP    WIND        PRES    WAVE   SWELL
                       AIR SEA DIR/SP/G            HT/PER HT/PER/DIR
                 (UTC) (F)     (DEG/KT/KT) (MB)    (FT/S) (FT/S/D)
FORT PULASKI     0300   77 81  180/  1/  2 1013.7
SAPELO ISLAND    0300   75     160/  3     1014.0
WINYAH BAY       0230   73     300/  2     1012.0S
LAKE MURRAY      0320   74     280/  7/ 12 1012.5
ACE BASIN NERRS  0245   73        CALM     1013.0S


...C-MAN AND BUOY OBSERVATIONS...

STATION/POSITION TIME  TEMP    WIND        PRES    WAVE   SWELL
                       AIR SEA DIR/SP/G            HT/PER HT/PER/DIR
                 (UTC) (F)     (DEG/KT/KT) (MB)    (FT/S) (FT/S/D)
BUOY 41004       0250   80 82   80/  2/  4 1012.8R   3/12   2/100/12
BUOY 41008       0250   80 82  190/  4/  4 1013.5R   2/ 9   2/ 80/ 9
FOLLY BEACH CMAN 0300   79     190/  5/  5 1013.6R
CAPERS NS BUOY   0308   79 81  200/  4/  6 1013.3R
FRIPP NS BUOY    0308   79 81  190/  6/  8 1013.5R
5E ST. MARYS GA  0301      82                N/A     2/13   2/ 90/13


STATION/POSITION TIME  TEMP    WIND        PRES    WAVE   SWELL
                       AIR SEA DIR/SP/G            HT/PER HT/PER/DIR
                 (UTC) (F)     (DEG/KT/KT) (MB)    (FT/S) (FT/S/D)
FRYING PAN BUOY  0310   80 82   50/  4/  6 1012.5
BUOY 41025       0250   77 84   10/ 14/ 16 1011.7F   5/ 7   3/110/ 7
CAPE LOOKOUT NC  0300   76      10/  5/  5 1011.9F
BUOY 41002       0250   81 83  240/ 14/ 16 1012.7R   5/12   3/ 80/12
BUOY 41010       NOT AVBL
ST AUGUSTINE FL  0300   78 85  220/  6/  7 1015.0R

$$




USA.gov is the U.S. government's official web portal to all federal, state and local government web resources and services.